Location: Newark
(43.9494°N, 6.8108°E)
Time: 13:36:11
(UTC+00:00)

Tiros 1 despin weight - Visible Passes

Search period start: 20 October 2019 00:00
Search period end: 30 October 2019 00:00
Orbit: 593 x 643 km, 48.2° (Epoch: 19 October)

Date Brightness Start Highest point End Pass type
(mag) Time Alt. Az. Time Alt. Az. Time Alt. Az.
20 Oct ? 02:09:34 12° ENE 02:09:34 12° ENE 02:09:56 10° ENE visible
20 Oct ? 03:46:38 47° NNW 03:47:18 51° N 03:51:53 10° E visible
21 Oct ? 02:25:33 16° ENE 02:25:33 16° ENE 02:26:37 10° ENE visible
21 Oct ? 04:02:37 40° NW 04:04:04 61° NNE 04:08:42 10° E visible
22 Oct ? 02:41:33 22° ENE 02:41:33 22° ENE 02:43:22 10° ENE visible
22 Oct ? 04:18:38 33° WNW 04:20:45 81° NNE 04:25:26 10° ESE visible
23 Oct ? 02:57:37 30° ENE 02:57:37 30° ENE 03:00:12 10° E visible
23 Oct ? 04:34:42 25° WNW 04:37:20 69° SSW 04:41:59 10° SE visible
24 Oct ? 03:13:46 42° E 03:13:46 42° E 03:16:59 10° E visible
24 Oct ? 04:50:51 19° W 04:53:48 41° SW 04:58:11 10° SE visible
25 Oct ? 03:29:59 55° ESE 03:29:59 55° ESE 03:33:39 10° ESE visible
25 Oct ? 05:07:04 13° W 05:10:08 24° SW 05:13:52 10° SSE visible
26 Oct ? 03:46:18 49° S 03:46:18 49° S 03:50:05 10° SE visible
26 Oct ? 05:24:14 10° WSW 05:26:20 13° SW 05:28:26 10° SSW visible
27 Oct ? 04:02:42 31° SSW 04:02:42 31° SSW 04:06:06 10° SSE visible
28 Oct ? 04:19:13 18° SSW 04:19:13 18° SSW 04:21:26 10° S visible
